User: anonymous   Login
Location: Unspecified
(0.0000°N, 0.0000°E)
Time: 12:48:58
(UTC+00:00)
Language:

STSS DEMO 2 (USA 209) - Orbit

View from above orbital plane
View from above orbital plane
View from above satellite
View from above satellite

Ground track
Ground track

The orbit data is extracted from the following two-line orbital elements,

1 35938U 09052B   19103.81683765 0.00000000  00000-0  00000-0 0    05
2 35938  57.9917  24.0811 0010201 253.6595 106.3405 12.79305868    01
Epoch (UTC): 13 April 2019 19:36:14
Eccentricity: 0.0010201
inclination: 57.9917°
perigee height: 1336 km
apogee height: 1352 km
right ascension of ascending node: 24.0811°
argument of perigee: 253.6595°
revolutions per day: 12.79305868
mean anomaly at epoch: 106.3405°
orbit number at epoch: 0

The dashed part of the orbit path shows where the satellite is in the earth's shadow,  

DLR